Millinocket, ME

4:19 PM EDT on September 26, 2016 (GMT -0400)
Millinocket Municipal

Weather History for KMLT - November, 2013

Change the Weather History Date:

Sunday, November 17, 2013

  Actual Average Record
Temperature  
Mean Temperature 33 °F 34 °F  
Max Temperature 43 °F 41 °F 64 °F (1989)
Min Temperature 22 °F 27 °F -7 °F (1916)
Degree Days  
Heating Degree Days 32 31  
Month to date heating degree days 477 472  
Since 1 July heating degree days 1227 1406  
Cooling Degree Days 0 0  
Month to date cooling degree days 0 0  
Year to date cooling degree days 380 268  
Moisture  
Dew Point 33 °F    
Average Humidity 91    
Maximum Humidity 100    
Minimum Humidity 82    
Precipitation  
Precipitation T in 0.16 in 1.19 in (1921)
Month to date precipitation 1.20 2.27  
Year to date precipitation 32.83 36.99  
Sea Level Pressure  
Sea Level Pressure 30.26 in    
Wind  
Wind Speed 1 mph (East)    
Max Wind Speed 7 mph    
Max Gust Speed 10 mph    
Visibility 7 miles    
Events Fog , Rain    
T = Trace of Precipitation, MM = Missing Value Source: NWS Daily Summary

Daily Weather History Graph

Daily Weather History Graph

Search for Another Location

Airport or City:

Trip Planner

Search our weather history database for the weather conditions in past years. The results will help you decide how hot, cold, wet, or windy it might be!

Date:

Astronomy

Nov. 17, 2013 Rise Set
Actual Time 6:37 AM EST 4:01 PM EST
Civil Twilight 6:04 AM EST 4:34 PM EST
Nautical Twilight 5:28 AM EST 5:10 PM EST
Astronomical Twilight 4:53 AM EST 5:45 PM EST
Moon 4:16 PM EST (11/17) 6:27 AM EST (11/17)
Length of Visible Light 10h 29m
Length of Day
9h 24m
Full, 100% of the Moon is Illuminated
Nov 17
Full
Nov 25
Last Quarter
Dec 2
New
Dec 9
First Quarter
Dec 17
Full

Hourly Weather History & Observations

Time (EST) Temp. Windchill Dew Point Humidity Pressure Visibility Wind Dir Wind Speed Gust Speed Precip Events Conditions
12:53 AM 25.0 °F - 21.9 °F 88% 30.37 in 6.0 mi Calm Calm - N/A   Clear
1:53 AM 25.0 °F - 21.0 °F 85% 30.38 in 7.0 mi Calm Calm - N/A   Clear
2:53 AM 24.1 °F - 21.0 °F 88% 30.38 in 6.0 mi Calm Calm - N/A   Clear
3:53 AM 24.1 °F - 21.0 °F 88% 30.38 in 6.0 mi Calm Calm - N/A   Clear
4:53 AM 23.0 °F - 19.9 °F 88% 30.38 in 7.0 mi Calm Calm - N/A   Clear
5:53 AM 21.9 °F 15.7 °F 19.9 °F 92% 30.39 in 8.0 mi WNW 4.6 mph - N/A   Partly Cloudy
6:53 AM 23.0 °F - 19.9 °F 88% 30.39 in 7.0 mi Calm Calm - N/A   Partly Cloudy
7:53 AM 26.1 °F - 24.1 °F 92% 30.39 in 7.0 mi Calm Calm - N/A   Clear
8:27 AM 28.4 °F - 26.6 °F 93% 30.35 in 8.0 mi Calm Calm - N/A   Scattered Clouds
8:45 AM 30.2 °F 25.4 °F 26.6 °F 86% 30.34 in 10.0 mi ESE 4.6 mph - N/A   Mostly Cloudy
8:53 AM 30.0 °F 25.2 °F 27.0 °F 88% 30.38 in 10.0 mi ESE 4.6 mph - N/A   Mostly Cloudy
9:23 AM 32.0 °F - 28.4 °F 87% 30.35 in 8.0 mi Calm Calm - N/A   Overcast
9:37 AM 32.0 °F - 30.2 °F 93% 30.35 in 1.5 mi Calm Calm - N/A   Overcast
9:39 AM 32.0 °F - 30.2 °F 93% 30.35 in 0.8 mi Calm Calm - N/A   Overcast
9:49 AM 32.0 °F 28.7 °F 32.0 °F 100% 30.35 in 0.2 mi ESE 3.5 mph - N/A Fog Fog
9:53 AM 32.0 °F 27.5 °F 32.0 °F 100% 30.38 in 0.2 mi ESE 4.6 mph - N/A Fog Fog
10:15 AM 33.8 °F 30.8 °F 32.0 °F 93% 30.34 in 0.5 mi Variable 3.5 mph - N/A Fog Fog
10:35 AM 33.8 °F 30.8 °F 33.8 °F 100% 30.32 in 1.2 mi Variable 3.5 mph - N/A   Overcast
10:53 AM 35.1 °F - 34.0 °F 96% 30.35 in 1.0 mi Calm Calm - N/A   Overcast
11:05 AM 35.6 °F - 33.8 °F 93% 30.32 in 1.8 mi Calm Calm - N/A   Overcast
11:20 AM 35.6 °F - 35.6 °F 100% 30.32 in 3.0 mi Calm Calm - N/A   Overcast
11:53 AM 37.9 °F 32.7 °F 37.0 °F 97% 30.31 in 7.0 mi SE 6.9 mph - N/A   Overcast
12:53 PM 39.9 °F 37.8 °F 37.0 °F 89% 30.30 in 8.0 mi Variable 3.5 mph - N/A   Overcast
1:01 PM 41.0 °F 39.0 °F 37.4 °F 87% 30.28 in 9.0 mi Variable 3.5 mph - N/A   Overcast
1:53 PM 41.0 °F - 37.0 °F 86% 30.28 in 10.0 mi Calm Calm - N/A   Overcast
2:00 PM 42.8 °F - 37.4 °F 81% 30.24 in 10.0 mi Calm Calm - N/A   Overcast
2:53 PM 42.1 °F 40.2 °F 37.9 °F 85% 30.27 in 10.0 mi East 3.5 mph - N/A   Overcast
3:41 PM 41.0 °F - 37.4 °F 87% 30.23 in 10.0 mi Calm Calm - N/A   Overcast
3:53 PM 39.9 °F - 37.0 °F 89% 30.25 in 10.0 mi Calm Calm - N/A   Overcast
4:53 PM 39.0 °F - 36.0 °F 89% 30.25 in 9.0 mi Calm Calm - N/A   Overcast
5:17 PM 39.2 °F - 37.4 °F 93% 30.22 in 8.0 mi Calm Calm - N/A   Overcast
5:53 PM 39.0 °F - 37.0 °F 93% 30.23 in 5.0 mi Calm Calm - N/A   Overcast
6:10 PM 39.2 °F - 37.4 °F 93% 30.19 in 8.0 mi Calm Calm - N/A   Overcast
6:50 PM 39.2 °F - 37.4 °F 93% 30.17 in 8.0 mi Calm Calm - N/A   Overcast
6:53 PM 39.0 °F - 37.0 °F 93% 30.20 in 8.0 mi Calm Calm - N/A   Overcast
7:32 PM 39.2 °F - 37.4 °F 93% 30.15 in 8.0 mi Calm Calm - N/A   Overcast
7:53 PM 39.9 °F - 37.0 °F 89% 30.16 in 8.0 mi Calm Calm - N/A   Overcast
8:53 PM 41.0 °F - 37.9 °F 89% 30.14 in 8.0 mi Calm Calm - N/A   Overcast
9:24 PM 41.0 °F 39.0 °F 37.4 °F 87% 30.09 in 8.0 mi ENE 3.5 mph - 0.00 in Rain Light Rain
9:53 PM 41.0 °F - 39.0 °F 93% 30.11 in 7.0 mi Calm Calm - 0.00 in   Overcast
10:36 PM 41.0 °F - 39.2 °F 93% 30.05 in 7.0 mi Calm Calm - N/A   Overcast
10:53 PM 42.1 °F 38.4 °F 39.0 °F 89% 30.07 in 8.0 mi East 5.8 mph - N/A   Overcast
11:00 PM 42.8 °F 40.1 °F 39.2 °F 87% 30.04 in 7.0 mi East 4.6 mph - N/A   Overcast
11:10 PM 42.8 °F 41.1 °F 39.2 °F 87% 30.04 in 7.0 mi ENE 3.5 mph - N/A   Overcast
11:53 PM 43.0 °F - 41.0 °F 93% 30.03 in 7.0 mi Calm Calm - N/A   Overcast